contact:dominique.lefevre@mio.osupytheas.fr, maurice.libes@osupytheas.fr, didier.mallarino@osupytheas.fr
Project:EMSO http://www.emso-fr.org/EMSO-France
Depth: 2436.0 m
Title:EMSO Ligure Ouest : Data MII capteur MICROCAT
DateTime_Computer,Latitude,Longitude,Temperature,Conductivity,Pressure,DateTime_Instrument
DateTime_Computer,Latitude,Longitude,degC,S m-1,dbar,DateTime_Instrument
2021-11-30T00:01:06Z,42.805,6.029,13.2993,4.60009,2470.24,2021-11-30T02:02:34Z
2021-11-30T00:04:10Z,42.805,6.029,13.2991,4.60011,2470.24,2021-11-30T02:05:37Z
2021-11-30T00:07:13Z,42.805,6.029,13.2991,4.60011,2470.273,2021-11-30T02:08:40Z
2021-11-30T00:10:16Z,42.805,6.029,13.2992,4.60011,2470.203,2021-11-30T02:11:43Z
2021-11-30T00:13:19Z,42.805,6.029,13.2991,4.60011,2470.25,2021-11-30T02:14:46Z
2021-11-30T00:16:22Z,42.805,6.029,13.2991,4.60011,2470.227,2021-11-30T02:17:49Z
2021-11-30T00:19:25Z,42.805,6.029,13.2993,4.60011,2470.227,2021-11-30T02:20:52Z
2021-11-30T00:22:28Z,42.805,6.029,13.2991,4.60010,2470.287,2021-11-30T02:23:56Z
2021-11-30T00:25:31Z,42.805,6.029,13.2991,4.60010,2470.25,2021-11-30T02:26:59Z
2021-11-30T00:28:35Z,42.805,6.029,13.2990,4.60010,2470.264,2021-11-30T02:30:02Z
2021-11-30T00:31:38Z,42.805,6.029,13.2993,4.60011,2470.227,2021-11-30T02:33:05Z
2021-11-30T00:34:41Z,42.805,6.029,13.2994,4.60010,2470.264,2021-11-30T02:36:08Z
2021-11-30T00:37:44Z,42.805,6.029,13.2993,4.60011,2470.264,2021-11-30T02:39:11Z
2021-11-30T00:40:47Z,42.805,6.029,13.2991,4.60012,2470.25,2021-11-30T02:42:14Z
2021-11-30T00:43:50Z,42.805,6.029,13.2991,4.60011,2470.25,2021-11-30T02:45:17Z
2021-11-30T00:46:53Z,42.805,6.029,13.2991,4.60011,2470.227,2021-11-30T02:48:21Z
2021-11-30T00:49:56Z,42.805,6.029,13.2992,4.60010,2470.264,2021-11-30T02:51:24Z
2021-11-30T00:53:00Z,42.805,6.029,13.2993,4.60010,2470.273,2021-11-30T02:54:27Z
2021-11-30T00:56:03Z,42.805,6.029,13.2993,4.60010,2470.227,2021-11-30T02:57:30Z
2021-11-30T00:59:06Z,42.805,6.029,13.2990,4.60010,2470.264,2021-11-30T03:00:33Z
2021-11-30T01:02:09Z,42.805,6.029,13.2992,4.60010,2470.273,2021-11-30T03:03:36Z
2021-11-30T01:05:12Z,42.805,6.029,13.2992,4.60010,2470.25,2021-11-30T03:06:39Z
2021-11-30T01:08:15Z,42.805,6.029,13.2992,4.60010,2470.25,2021-11-30T03:09:42Z
2021-11-30T01:11:18Z,42.805,6.029,13.2991,4.60011,2470.26,2021-11-30T03:12:46Z
2021-11-30T01:14:21Z,42.805,6.029,13.2992,4.60010,2470.287,2021-11-30T03:15:49Z
2021-11-30T01:17:25Z,42.805,6.029,13.2989,4.60011,2470.297,2021-11-30T03:18:52Z
2021-11-30T01:20:28Z,42.805,6.029,13.2993,4.60010,2470.273,2021-11-30T03:21:55Z
2021-11-30T01:23:31Z,42.805,6.029,13.2997,4.60011,2470.31,2021-11-30T03:24:58Z
2021-11-30T01:26:34Z,42.805,6.029,13.2991,4.60010,2470.287,2021-11-30T03:28:01Z
2021-11-30T01:29:37Z,42.805,6.029,13.2989,4.60009,2470.31,2021-11-30T03:31:04Z
2021-11-30T01:32:40Z,42.805,6.029,13.2992,4.60009,2470.297,2021-11-30T03:34:07Z
2021-11-30T01:35:43Z,42.805,6.029,13.2993,4.60009,2470.297,2021-11-30T03:37:11Z
2021-11-30T01:38:46Z,42.805,6.029,13.2990,4.60011,2470.287,2021-11-30T03:40:14Z
2021-11-30T01:41:50Z,42.805,6.029,13.2991,4.60010,2470.31,2021-11-30T03:43:17Z
2021-11-30T01:44:53Z,42.805,6.029,13.2995,4.60013,2470.273,2021-11-30T03:46:20Z
2021-11-30T01:47:56Z,42.805,6.029,13.2991,4.60011,2470.31,2021-11-30T03:49:23Z
2021-11-30T01:50:59Z,42.805,6.029,13.2992,4.60011,2470.273,2021-11-30T03:52:26Z
2021-11-30T01:54:02Z,42.805,6.029,13.2993,4.60009,2470.297,2021-11-30T03:55:29Z
2021-11-30T01:57:05Z,42.805,6.029,13.2991,4.60010,2470.297,2021-11-30T03:58:32Z
2021-11-30T02:00:08Z,42.805,6.029,13.2991,4.60010,2470.31,2021-11-30T04:01:36Z
2021-11-30T02:03:11Z,42.805,6.029,13.2991,4.60010,2470.287,2021-11-30T04:04:39Z
2021-11-30T02:06:15Z,42.805,6.029,13.2990,4.60010,2470.287,2021-11-30T04:07:42Z
2021-11-30T02:09:18Z,42.805,6.029,13.2994,4.60010,2470.297,2021-11-30T04:10:45Z
2021-11-30T02:12:21Z,42.805,6.029,13.2993,4.60011,2470.297,2021-11-30T04:13:48Z
2021-11-30T02:15:24Z,42.805,6.029,13.2993,4.60010,2470.297,2021-11-30T04:16:51Z
2021-11-30T02:18:27Z,42.805,6.029,13.2991,4.60010,2470.334,2021-11-30T04:19:54Z
2021-11-30T02:21:30Z,42.805,6.029,13.2992,4.60010,2470.32,2021-11-30T04:22:57Z
2021-11-30T02:24:33Z,42.805,6.029,13.2991,4.60010,2470.297,2021-11-30T04:26:01Z
2021-11-30T02:27:36Z,42.805,6.029,13.2990,4.60010,2470.297,2021-11-30T04:29:04Z
2021-11-30T02:30:40Z,42.805,6.029,13.2991,4.60010,2470.32,2021-11-30T04:32:07Z
2021-11-30T02:33:43Z,42.805,6.029,13.2990,4.60011,2470.334,2021-11-30T04:35:10Z
2021-11-30T02:36:46Z,42.805,6.029,13.2988,4.60009,2470.32,2021-11-30T04:38:13Z
2021-11-30T02:39:49Z,42.805,6.029,13.2987,4.60009,2470.343,2021-11-30T04:41:16Z
2021-11-30T02:42:52Z,42.805,6.029,13.2990,4.60009,2470.287,2021-11-30T04:44:19Z
2021-11-30T02:45:55Z,42.805,6.029,13.2990,4.60009,2470.32,2021-11-30T04:47:22Z
2021-11-30T02:48:58Z,42.805,6.029,13.2991,4.60011,2470.32,2021-11-30T04:50:26Z
2021-11-30T02:52:01Z,42.805,6.029,13.2991,4.60011,2470.32,2021-11-30T04:53:29Z
2021-11-30T02:55:05Z,42.805,6.029,13.2991,4.60009,2470.32,2021-11-30T04:56:32Z
2021-11-30T02:58:08Z,42.805,6.029,13.2989,4.60010,2470.343,2021-11-30T04:59:35Z
2021-11-30T03:01:11Z,42.805,6.029,13.2993,4.60010,2470.31,2021-11-30T05:02:38Z
2021-11-30T03:04:14Z,42.805,6.029,13.2991,4.60009,2470.334,2021-11-30T05:05:41Z
2021-11-30T03:07:17Z,42.805,6.029,13.2992,4.60010,2470.306,2021-11-30T05:08:44Z
2021-11-30T03:10:20Z,42.805,6.029,13.2994,4.60011,2470.297,2021-11-30T05:11:47Z
2021-11-30T03:13:23Z,42.805,6.029,13.2989,4.60010,2470.334,2021-11-30T05:14:51Z
2021-11-30T03:16:26Z,42.805,6.029,13.2991,4.60011,2470.334,2021-11-30T05:17:54Z
2021-11-30T03:19:30Z,42.805,6.029,13.2989,4.60009,2470.343,2021-11-30T05:20:57Z
2021-11-30T03:22:33Z,42.805,6.029,13.2996,4.60009,2470.357,2021-11-30T05:24:00Z
2021-11-30T03:25:36Z,42.805,6.029,13.2990,4.60011,2470.357,2021-11-30T05:27:03Z
2021-11-30T03:28:39Z,42.805,6.029,13.2994,4.60010,2470.357,2021-11-30T05:30:06Z
2021-11-30T03:31:42Z,42.805,6.029,13.2990,4.60011,2470.334,2021-11-30T05:33:09Z
2021-11-30T03:34:45Z,42.805,6.029,13.2992,4.60013,2470.32,2021-11-30T05:36:12Z
2021-11-30T03:37:48Z,42.805,6.029,13.2993,4.60009,2470.366,2021-11-30T05:39:16Z
2021-11-30T03:40:51Z,42.805,6.029,13.2992,4.60009,2470.343,2021-11-30T05:42:19Z
2021-11-30T03:43:55Z,42.805,6.029,13.2991,4.60009,2470.353,2021-11-30T05:45:22Z
2021-11-30T03:46:58Z,42.805,6.029,13.2990,4.60009,2470.343,2021-11-30T05:48:25Z
2021-11-30T03:50:01Z,42.805,6.029,13.2990,4.60009,2470.357,2021-11-30T05:51:28Z
2021-11-30T03:53:04Z,42.805,6.029,13.2992,4.60012,2470.334,2021-11-30T05:54:31Z
2021-11-30T03:56:07Z,42.805,6.029,13.2991,4.60010,2470.38,2021-11-30T05:57:34Z
2021-11-30T03:59:10Z,42.805,6.029,13.2994,4.60010,2470.31,2021-11-30T06:00:37Z
2021-11-30T04:02:13Z,42.805,6.029,13.2989,4.60010,2470.366,2021-11-30T06:03:41Z
2021-11-30T04:05:16Z,42.805,6.029,13.2986,4.60009,2470.366,2021-11-30T06:06:44Z
2021-11-30T04:08:20Z,42.805,6.029,13.2996,4.60011,2470.343,2021-11-30T06:09:47Z
2021-11-30T04:11:23Z,42.805,6.029,13.2991,4.60014,2470.366,2021-11-30T06:12:50Z
2021-11-30T04:14:26Z,42.805,6.029,13.2992,4.60010,2470.357,2021-11-30T06:15:53Z
2021-11-30T04:17:29Z,42.805,6.029,13.2993,4.60011,2470.343,2021-11-30T06:18:56Z
2021-11-30T04:20:32Z,42.805,6.029,13.2990,4.60011,2470.343,2021-11-30T06:21:59Z
2021-11-30T04:23:35Z,42.805,6.029,13.2995,4.60010,2470.357,2021-11-30T06:25:02Z
2021-11-30T04:26:38Z,42.805,6.029,13.2992,4.60010,2470.343,2021-11-30T06:28:05Z
2021-11-30T04:29:41Z,42.805,6.029,13.2989,4.60011,2470.38,2021-11-30T06:31:09Z
2021-11-30T04:32:45Z,42.805,6.029,13.2992,4.60011,2470.343,2021-11-30T06:34:12Z
2021-11-30T04:35:48Z,42.805,6.029,13.2990,4.60011,2470.343,2021-11-30T06:37:15Z
2021-11-30T04:38:51Z,42.805,6.029,13.2991,4.60011,2470.32,2021-11-30T06:40:18Z
2021-11-30T04:41:54Z,42.805,6.029,13.2991,4.60010,2470.38,2021-11-30T06:43:21Z
2021-11-30T04:44:57Z,42.805,6.029,13.2991,4.60012,2470.343,2021-11-30T06:46:24Z
2021-11-30T04:48:00Z,42.805,6.029,13.2994,4.60010,2470.334,2021-11-30T06:49:27Z
2021-11-30T04:51:03Z,42.805,6.029,13.2990,4.60011,2470.32,2021-11-30T06:52:30Z
2021-11-30T04:54:06Z,42.805,6.029,13.2993,4.60011,2470.366,2021-11-30T06:55:34Z
2021-11-30T04:57:10Z,42.805,6.029,13.2991,4.60011,2470.357,2021-11-30T06:58:37Z
2021-11-30T05:00:13Z,42.805,6.029,13.2993,4.60011,2470.343,2021-11-30T07:01:40Z
2021-11-30T05:03:16Z,42.805,6.029,13.2991,4.60011,2470.366,2021-11-30T07:04:43Z
2021-11-30T05:06:19Z,42.805,6.029,13.2994,4.60011,2470.32,2021-11-30T07:07:46Z
2021-11-30T05:09:22Z,42.805,6.029,13.2990,4.60010,2470.32,2021-11-30T07:10:49Z
2021-11-30T05:12:25Z,42.805,6.029,13.2993,4.60010,2470.357,2021-11-30T07:13:52Z
2021-11-30T05:15:28Z,42.805,6.029,13.2993,4.60013,2470.366,2021-11-30T07:16:55Z
2021-11-30T05:18:31Z,42.805,6.029,13.2996,4.60011,2470.343,2021-11-30T07:19:59Z
2021-11-30T05:21:34Z,42.805,6.029,13.2991,4.60010,2470.38,2021-11-30T07:23:02Z
2021-11-30T05:24:38Z,42.805,6.029,13.2991,4.60011,2470.343,2021-11-30T07:26:05Z
2021-11-30T05:27:41Z,42.805,6.029,13.2991,4.60011,2470.32,2021-11-30T07:29:08Z
2021-11-30T05:30:44Z,42.805,6.029,13.2993,4.60011,2470.366,2021-11-30T07:32:11Z
2021-11-30T05:33:47Z,42.805,6.029,13.2994,4.60009,2470.357,2021-11-30T07:35:14Z
2021-11-30T05:36:50Z,42.805,6.029,13.2993,4.60011,2470.357,2021-11-30T07:38:17Z
2021-11-30T05:39:53Z,42.805,6.029,13.2991,4.60011,2470.366,2021-11-30T07:41:20Z
2021-11-30T05:42:56Z,42.805,6.029,13.2996,4.60011,2470.343,2021-11-30T07:44:24Z
2021-11-30T05:46:00Z,42.805,6.029,13.2990,4.60011,2470.334,2021-11-30T07:47:27Z
2021-11-30T05:49:03Z,42.805,6.029,13.2993,4.60010,2470.32,2021-11-30T07:50:30Z
2021-11-30T05:52:06Z,42.805,6.029,13.2991,4.60011,2470.343,2021-11-30T07:53:33Z
2021-11-30T05:55:09Z,42.805,6.029,13.2993,4.60010,2470.357,2021-11-30T07:56:36Z
2021-11-30T05:58:12Z,42.805,6.029,13.2997,4.60011,2470.32,2021-11-30T07:59:39Z
2021-11-30T06:01:15Z,42.805,6.029,13.2998,4.60011,2470.366,2021-11-30T08:02:42Z
2021-11-30T06:04:18Z,42.805,6.029,13.2995,4.60012,2470.38,2021-11-30T08:05:45Z
2021-11-30T06:07:21Z,42.805,6.029,13.2990,4.60011,2470.32,2021-11-30T08:08:49Z
2021-11-30T06:10:24Z,42.805,6.029,13.2991,4.60014,2470.343,2021-11-30T08:11:52Z
2021-11-30T06:13:28Z,42.805,6.029,13.2993,4.60011,2470.343,2021-11-30T08:14:55Z
2021-11-30T06:16:31Z,42.805,6.029,13.2993,4.60011,2470.38,2021-11-30T08:17:58Z
2021-11-30T06:19:34Z,42.805,6.029,13.2991,4.60010,2470.357,2021-11-30T08:21:01Z
2021-11-30T06:22:37Z,42.805,6.029,13.2990,4.60013,2470.343,2021-11-30T08:24:04Z
2021-11-30T06:25:40Z,42.805,6.029,13.2993,4.60011,2470.32,2021-11-30T08:27:07Z
2021-11-30T06:28:43Z,42.805,6.029,13.2993,4.60011,2470.334,2021-11-30T08:30:10Z
2021-11-30T06:31:46Z,42.805,6.029,13.2990,4.60011,2470.357,2021-11-30T08:33:14Z
2021-11-30T06:34:49Z,42.805,6.029,13.2995,4.60011,2470.343,2021-11-30T08:36:17Z
2021-11-30T06:37:53Z,42.805,6.029,13.2993,4.60011,2470.357,2021-11-30T08:39:20Z
2021-11-30T06:40:56Z,42.805,6.029,13.2991,4.60011,2470.32,2021-11-30T08:42:23Z
2021-11-30T06:43:59Z,42.805,6.029,13.2993,4.60010,2470.343,2021-11-30T08:45:26Z
2021-11-30T06:47:02Z,42.805,6.029,13.2993,4.60011,2470.32,2021-11-30T08:48:29Z
2021-11-30T06:50:05Z,42.805,6.029,13.2992,4.60011,2470.357,2021-11-30T08:51:32Z
2021-11-30T06:53:08Z,42.805,6.029,13.2991,4.60014,2470.357,2021-11-30T08:54:35Z
2021-11-30T06:56:11Z,42.805,6.029,13.2993,4.60011,2470.334,2021-11-30T08:57:39Z
2021-11-30T06:59:14Z,42.805,6.029,13.2991,4.60012,2470.32,2021-11-30T09:00:42Z
2021-11-30T07:02:18Z,42.805,6.029,13.2991,4.60011,2470.357,2021-11-30T09:03:45Z
2021-11-30T07:05:21Z,42.805,6.029,13.2990,4.60011,2470.334,2021-11-30T09:06:48Z
2021-11-30T07:08:24Z,42.805,6.029,13.2990,4.60013,2470.32,2021-11-30T09:09:51Z
2021-11-30T07:11:27Z,42.805,6.029,13.2994,4.60010,2470.32,2021-11-30T09:12:54Z
2021-11-30T07:14:30Z,42.805,6.029,13.2991,4.60010,2470.343,2021-11-30T09:15:57Z
2021-11-30T07:17:33Z,42.805,6.029,13.2994,4.60011,2470.31,2021-11-30T09:19:00Z
2021-11-30T07:20:36Z,42.805,6.029,13.2993,4.60012,2470.32,2021-11-30T09:22:04Z
2021-11-30T07:23:39Z,42.805,6.029,13.2991,4.60011,2470.357,2021-11-30T09:25:07Z
2021-11-30T07:26:43Z,42.805,6.029,13.2990,4.60011,2470.32,2021-11-30T09:28:10Z
2021-11-30T07:29:46Z,42.805,6.029,13.2992,4.60011,2470.357,2021-11-30T09:31:13Z
2021-11-30T07:32:49Z,42.805,6.029,13.2991,4.60011,2470.343,2021-11-30T09:34:16Z
2021-11-30T07:35:52Z,42.805,6.029,13.2992,4.60010,2470.32,2021-11-30T09:37:19Z
2021-11-30T07:38:55Z,42.805,6.029,13.2993,4.60011,2470.343,2021-11-30T09:40:22Z
2021-11-30T07:41:58Z,42.805,6.029,13.2990,4.60011,2470.334,2021-11-30T09:43:25Z
2021-11-30T07:45:01Z,42.805,6.029,13.2991,4.60011,2470.343,2021-11-30T09:46:29Z
2021-11-30T07:48:04Z,42.805,6.029,13.2993,4.60011,2470.357,2021-11-30T09:49:32Z
2021-11-30T07:51:08Z,42.805,6.029,13.2991,4.60011,2470.297,2021-11-30T09:52:35Z
2021-11-30T07:54:11Z,42.805,6.029,13.2990,4.60011,2470.343,2021-11-30T09:55:38Z
2021-11-30T07:57:14Z,42.805,6.029,13.2987,4.60011,2470.32,2021-11-30T09:58:41Z
2021-11-30T08:00:17Z,42.805,6.029,13.2994,4.60010,2470.334,2021-11-30T10:01:44Z
2021-11-30T08:03:20Z,42.805,6.029,13.2991,4.60011,2470.32,2021-11-30T10:04:47Z
2021-11-30T08:06:23Z,42.805,6.029,13.2990,4.60010,2470.32,2021-11-30T10:07:50Z
2021-11-30T08:09:26Z,42.805,6.029,13.2995,4.60010,2470.343,2021-11-30T10:10:54Z
2021-11-30T08:12:29Z,42.805,6.029,13.2993,4.60011,2470.357,2021-11-30T10:13:57Z
2021-11-30T08:15:33Z,42.805,6.029,13.2993,4.60010,2470.357,2021-11-30T10:17:00Z
2021-11-30T08:18:36Z,42.805,6.029,13.2992,4.60010,2470.297,2021-11-30T10:20:03Z
2021-11-30T08:21:39Z,42.805,6.029,13.2990,4.60011,2470.31,2021-11-30T10:23:06Z
2021-11-30T08:24:42Z,42.805,6.029,13.2993,4.60011,2470.357,2021-11-30T10:26:09Z
2021-11-30T08:27:45Z,42.805,6.029,13.2991,4.60009,2470.357,2021-11-30T10:29:12Z
2021-11-30T08:30:48Z,42.805,6.029,13.2990,4.60010,2470.32,2021-11-30T10:32:15Z
2021-11-30T08:33:51Z,42.805,6.029,13.2995,4.60010,2470.334,2021-11-30T10:35:19Z
2021-11-30T08:36:54Z,42.805,6.029,13.2991,4.60011,2470.343,2021-11-30T10:38:22Z
2021-11-30T08:39:58Z,42.805,6.029,13.2994,4.60009,2470.297,2021-11-30T10:41:25Z
2021-11-30T08:43:01Z,42.805,6.029,13.2994,4.60011,2470.32,2021-11-30T10:44:28Z
2021-11-30T08:46:04Z,42.805,6.029,13.2989,4.60011,2470.297,2021-11-30T10:47:31Z
2021-11-30T08:49:07Z,42.805,6.029,13.2993,4.60010,2470.31,2021-11-30T10:50:34Z
2021-11-30T08:52:10Z,42.805,6.029,13.2989,4.60014,2470.343,2021-11-30T10:53:37Z
2021-11-30T08:55:13Z,42.805,6.029,13.2990,4.60011,2470.343,2021-11-30T10:56:40Z
2021-11-30T08:58:16Z,42.805,6.029,13.2990,4.60011,2470.357,2021-11-30T10:59:44Z
2021-11-30T09:01:19Z,42.805,6.029,13.2990,4.60010,2470.32,2021-11-30T11:02:47Z
2021-11-30T09:04:23Z,42.805,6.029,13.2994,4.60013,2470.334,2021-11-30T11:05:50Z
2021-11-30T09:07:26Z,42.805,6.029,13.2986,4.60011,2470.343,2021-11-30T11:08:53Z
2021-11-30T09:10:29Z,42.805,6.029,13.2993,4.60011,2470.31,2021-11-30T11:11:56Z
2021-11-30T09:13:32Z,42.805,6.029,13.2991,4.60012,2470.334,2021-11-30T11:14:59Z
2021-11-30T09:16:35Z,42.805,6.029,13.2995,4.60010,2470.32,2021-11-30T11:18:02Z
2021-11-30T09:19:38Z,42.805,6.029,13.2993,4.60010,2470.334,2021-11-30T11:21:05Z
2021-11-30T09:22:41Z,42.805,6.029,13.2992,4.60011,2470.32,2021-11-30T11:24:09Z
2021-11-30T09:25:44Z,42.805,6.029,13.2991,4.60011,2470.32,2021-11-30T11:27:12Z
2021-11-30T09:28:48Z,42.805,6.029,13.2991,4.60010,2470.32,2021-11-30T11:30:15Z
2021-11-30T09:31:51Z,42.805,6.029,13.2991,4.60010,2470.334,2021-11-30T11:33:18Z
2021-11-30T09:34:54Z,42.805,6.029,13.2990,4.60011,2470.32,2021-11-30T11:36:21Z
2021-11-30T09:37:57Z,42.805,6.029,13.2991,4.60011,2470.366,2021-11-30T11:39:24Z
2021-11-30T09:41:00Z,42.805,6.029,13.2992,4.60011,2470.32,2021-11-30T11:42:27Z
2021-11-30T09:44:03Z,42.805,6.029,13.2992,4.60012,2470.343,2021-11-30T11:45:30Z
2021-11-30T09:47:06Z,42.805,6.029,13.2994,4.60011,2470.32,2021-11-30T11:48:34Z
2021-11-30T09:50:10Z,42.805,6.029,13.2986,4.60011,2470.357,2021-11-30T11:51:37Z
2021-11-30T09:53:13Z,42.805,6.029,13.2991,4.60011,2470.334,2021-11-30T11:54:40Z
2021-11-30T09:56:16Z,42.805,6.029,13.2991,4.60011,2470.334,2021-11-30T11:57:43Z
2021-11-30T09:59:19Z,42.805,6.029,13.2994,4.60011,2470.31,2021-11-30T12:00:46Z
2021-11-30T10:02:22Z,42.805,6.029,13.2991,4.60013,2470.32,2021-11-30T12:03:49Z
2021-11-30T10:05:25Z,42.805,6.029,13.2991,4.60013,2470.343,2021-11-30T12:06:52Z
2021-11-30T10:08:28Z,42.805,6.029,13.2991,4.60011,2470.32,2021-11-30T12:09:56Z
2021-11-30T10:11:31Z,42.805,6.029,13.2990,4.60011,2470.32,2021-11-30T12:12:59Z
2021-11-30T10:14:35Z,42.805,6.029,13.2991,4.60014,2470.32,2021-11-30T12:16:02Z
2021-11-30T10:17:38Z,42.805,6.029,13.2993,4.60011,2470.343,2021-11-30T12:19:05Z
2021-11-30T10:20:41Z,42.805,6.029,13.2991,4.60011,2470.357,2021-11-30T12:22:08Z
2021-11-30T10:23:44Z,42.805,6.029,13.2991,4.60011,2470.366,2021-11-30T12:25:11Z
2021-11-30T10:26:47Z,42.805,6.029,13.2996,4.60011,2470.38,2021-11-30T12:28:14Z
2021-11-30T10:29:50Z,42.805,6.029,13.2991,4.60012,2470.343,2021-11-30T12:31:17Z
2021-11-30T10:32:53Z,42.805,6.029,13.2994,4.60011,2470.343,2021-11-30T12:34:21Z
2021-11-30T10:35:56Z,42.805,6.029,13.2991,4.60011,2470.343,2021-11-30T12:37:24Z
2021-11-30T10:39:00Z,42.805,6.029,13.2991,4.60014,2470.343,2021-11-30T12:40:27Z
2021-11-30T10:42:03Z,42.805,6.029,13.2994,4.60014,2470.343,2021-11-30T12:43:30Z
2021-11-30T10:45:06Z,42.805,6.029,13.2991,4.60013,2470.343,2021-11-30T12:46:33Z
2021-11-30T10:48:09Z,42.805,6.029,13.2994,4.60011,2470.343,2021-11-30T12:49:36Z
2021-11-30T10:51:12Z,42.805,6.029,13.2996,4.60011,2470.366,2021-11-30T12:52:39Z
2021-11-30T10:54:15Z,42.805,6.029,13.2993,4.60014,2470.343,2021-11-30T12:55:42Z
2021-11-30T10:57:18Z,42.805,6.029,13.2992,4.60013,2470.38,2021-11-30T12:58:46Z
2021-11-30T11:00:21Z,42.805,6.029,13.2998,4.60012,2470.366,2021-11-30T13:01:49Z
2021-11-30T11:03:25Z,42.805,6.029,13.2991,4.60011,2470.366,2021-11-30T13:04:52Z
2021-11-30T11:06:28Z,42.805,6.029,13.2991,4.60013,2470.39,2021-11-30T13:07:55Z
2021-11-30T11:09:31Z,42.805,6.029,13.2993,4.60012,2470.357,2021-11-30T13:10:58Z
2021-11-30T11:12:34Z,42.805,6.029,13.2994,4.60014,2470.39,2021-11-30T13:14:01Z
2021-11-30T11:15:37Z,42.805,6.029,13.2990,4.60012,2470.38,2021-11-30T13:17:04Z
2021-11-30T11:18:40Z,42.805,6.029,13.2991,4.60013,2470.366,2021-11-30T13:20:07Z
2021-11-30T11:21:43Z,42.805,6.029,13.2993,4.60013,2470.343,2021-11-30T13:23:11Z
2021-11-30T11:24:46Z,42.805,6.029,13.2989,4.60013,2470.404,2021-11-30T13:26:14Z
2021-11-30T11:27:50Z,42.805,6.029,13.2991,4.60013,2470.39,2021-11-30T13:29:17Z
2021-11-30T11:30:53Z,42.805,6.029,13.2995,4.60013,2470.366,2021-11-30T13:32:20Z
2021-11-30T11:33:56Z,42.805,6.029,13.2995,4.60012,2470.38,2021-11-30T13:35:23Z
2021-11-30T11:36:59Z,42.805,6.029,13.2993,4.60013,2470.39,2021-11-30T13:38:26Z
2021-11-30T11:40:02Z,42.805,6.029,13.2993,4.60011,2470.39,2021-11-30T13:41:29Z
2021-11-30T11:43:05Z,42.805,6.029,13.2992,4.60013,2470.39,2021-11-30T13:44:33Z
2021-11-30T11:46:08Z,42.805,6.029,13.2993,4.60012,2470.404,2021-11-30T13:47:36Z
2021-11-30T11:49:12Z,42.805,6.029,13.2993,4.60014,2470.39,2021-11-30T13:50:39Z
2021-11-30T11:52:15Z,42.805,6.029,13.2994,4.60012,2470.413,2021-11-30T13:53:42Z
2021-11-30T11:55:18Z,42.805,6.029,13.2994,4.60013,2470.39,2021-11-30T13:56:45Z
2021-11-30T11:58:21Z,42.805,6.029,13.2993,4.60013,2470.427,2021-11-30T13:59:48Z
2021-11-30T12:01:24Z,42.805,6.029,13.2996,4.60013,2470.413,2021-11-30T14:02:51Z
2021-11-30T12:04:27Z,42.805,6.029,13.2993,4.60014,2470.39,2021-11-30T14:05:54Z
2021-11-30T12:07:30Z,42.805,6.029,13.2990,4.60013,2470.427,2021-11-30T14:08:58Z
2021-11-30T12:10:33Z,42.805,6.029,13.2995,4.60012,2470.404,2021-11-30T14:12:01Z
2021-11-30T12:13:37Z,42.805,6.029,13.2993,4.60014,2470.404,2021-11-30T14:15:04Z
2021-11-30T12:16:40Z,42.805,6.029,13.2991,4.60014,2470.413,2021-11-30T14:18:07Z
2021-11-30T12:19:43Z,42.805,6.029,13.2996,4.60014,2470.427,2021-11-30T14:21:10Z
2021-11-30T12:22:46Z,42.805,6.029,13.2993,4.60015,2470.39,2021-11-30T14:24:13Z
2021-11-30T12:25:49Z,42.805,6.029,13.2999,4.60014,2470.413,2021-11-30T14:27:16Z
2021-11-30T12:28:52Z,42.805,6.029,13.2993,4.60014,2470.413,2021-11-30T14:30:19Z
2021-11-30T12:31:55Z,42.805,6.029,13.2994,4.60013,2470.46,2021-11-30T14:33:23Z
2021-11-30T12:34:58Z,42.805,6.029,13.2992,4.60014,2470.413,2021-11-30T14:36:26Z
2021-11-30T12:38:02Z,42.805,6.029,13.2992,4.60014,2470.413,2021-11-30T14:39:29Z
2021-11-30T12:41:05Z,42.805,6.029,13.2992,4.60014,2470.413,2021-11-30T14:42:32Z
2021-11-30T12:44:08Z,42.805,6.029,13.2996,4.60013,2470.437,2021-11-30T14:45:35Z
2021-11-30T12:47:11Z,42.805,6.029,13.2993,4.60011,2470.427,2021-11-30T14:48:38Z
2021-11-30T12:50:14Z,42.805,6.029,13.2993,4.60013,2470.45,2021-11-30T14:51:41Z
2021-11-30T12:53:17Z,42.805,6.029,13.2993,4.60013,2470.437,2021-11-30T14:54:45Z
2021-11-30T12:56:20Z,42.805,6.029,13.2991,4.60014,2470.437,2021-11-30T14:57:48Z
2021-11-30T12:59:23Z,42.805,6.029,13.2990,4.60013,2470.427,2021-11-30T15:00:51Z
2021-11-30T13:02:27Z,42.805,6.029,13.2995,4.60013,2470.45,2021-11-30T15:03:54Z
2021-11-30T13:05:30Z,42.805,6.029,13.2993,4.60015,2470.413,2021-11-30T15:06:57Z
2021-11-30T13:08:33Z,42.805,6.029,13.2993,4.60013,2470.45,2021-11-30T15:10:00Z
2021-11-30T13:11:36Z,42.805,6.029,13.2993,4.60014,2470.474,2021-11-30T15:13:03Z
2021-11-30T13:14:39Z,42.805,6.029,13.2994,4.60013,2470.474,2021-11-30T15:16:06Z
2021-11-30T13:17:42Z,42.805,6.029,13.2987,4.60014,2470.45,2021-11-30T15:19:10Z
2021-11-30T13:20:45Z,42.805,6.029,13.2993,4.60014,2470.46,2021-11-30T15:22:13Z
2021-11-30T13:23:49Z,42.805,6.029,13.2993,4.60014,2470.437,2021-11-30T15:25:16Z
2021-11-30T13:26:52Z,42.805,6.029,13.2995,4.60013,2470.437,2021-11-30T15:28:19Z
2021-11-30T13:29:55Z,42.805,6.029,13.2998,4.60013,2470.46,2021-11-30T15:31:22Z
2021-11-30T13:32:58Z,42.805,6.029,13.2993,4.60012,2470.497,2021-11-30T15:34:25Z
2021-11-30T13:36:01Z,42.805,6.029,13.2991,4.60013,2470.474,2021-11-30T15:37:28Z
2021-11-30T13:39:04Z,42.805,6.029,13.2996,4.60014,2470.474,2021-11-30T15:40:31Z
2021-11-30T13:42:07Z,42.805,6.029,13.2995,4.60014,2470.46,2021-11-30T15:43:35Z
2021-11-30T13:45:10Z,42.805,6.029,13.2992,4.60013,2470.483,2021-11-30T15:46:38Z
2021-11-30T13:48:14Z,42.805,6.029,13.2990,4.60014,2470.46,2021-11-30T15:49:41Z
2021-11-30T13:51:17Z,42.805,6.029,13.2994,4.60013,2470.474,2021-11-30T15:52:44Z
2021-11-30T13:54:20Z,42.805,6.029,13.2993,4.60014,2470.483,2021-11-30T15:55:47Z
2021-11-30T13:57:23Z,42.805,6.029,13.2991,4.60014,2470.483,2021-11-30T15:58:50Z
2021-11-30T14:00:26Z,42.805,6.029,13.2995,4.60013,2470.483,2021-11-30T16:01:53Z
2021-11-30T14:03:29Z,42.805,6.029,13.2994,4.60013,2470.483,2021-11-30T16:04:56Z
2021-11-30T14:06:32Z,42.805,6.029,13.2996,4.60014,2470.507,2021-11-30T16:08:00Z
2021-11-30T14:09:35Z,42.805,6.029,13.2990,4.60014,2470.483,2021-11-30T16:11:03Z
2021-11-30T14:12:39Z,42.805,6.029,13.2995,4.60013,2470.52,2021-11-30T16:14:06Z
2021-11-30T14:15:42Z,42.805,6.029,13.2994,4.60014,2470.483,2021-11-30T16:17:09Z
2021-11-30T14:18:45Z,42.805,6.029,13.2991,4.60014,2470.52,2021-11-30T16:20:12Z
2021-11-30T14:21:48Z,42.805,6.029,13.2995,4.60014,2470.53,2021-11-30T16:23:15Z
2021-11-30T14:24:51Z,42.805,6.029,13.2992,4.60014,2470.507,2021-11-30T16:26:18Z
2021-11-30T14:27:54Z,42.805,6.029,13.2993,4.60014,2470.483,2021-11-30T16:29:21Z
2021-11-30T14:30:57Z,42.805,6.029,13.2993,4.60015,2470.544,2021-11-30T16:32:25Z
2021-11-30T14:34:00Z,42.805,6.029,13.2996,4.60014,2470.483,2021-11-30T16:35:28Z
2021-11-30T14:37:04Z,42.805,6.029,13.2991,4.60014,2470.52,2021-11-30T16:38:31Z
2021-11-30T14:40:07Z,42.805,6.029,13.2993,4.60015,2470.507,2021-11-30T16:41:34Z
2021-11-30T14:43:10Z,42.805,6.029,13.2993,4.60014,2470.52,2021-11-30T16:44:37Z
2021-11-30T14:46:13Z,42.805,6.029,13.2995,4.60014,2470.483,2021-11-30T16:47:40Z
2021-11-30T14:49:16Z,42.805,6.029,13.2994,4.60014,2470.52,2021-11-30T16:50:43Z
2021-11-30T14:52:19Z,42.805,6.029,13.2993,4.60014,2470.553,2021-11-30T16:53:46Z
2021-11-30T14:55:22Z,42.805,6.029,13.2993,4.60015,2470.507,2021-11-30T16:56:50Z
2021-11-30T14:58:26Z,42.805,6.029,13.2998,4.60014,2470.544,2021-11-30T16:59:53Z
2021-11-30T15:01:29Z,42.805,6.029,13.2993,4.60014,2470.567,2021-11-30T17:02:56Z